Weather past 2 weeks in Saipan, Northern Mariana Islands

Now
83 °F

Light rain. Broken clouds.


Feels Like: 93 °F
Forecast: 76 / 82 °F
Wind: 23 mph from Northeast

Location: Saipan International Airport

Current Time: Dec 23, 2014 at 1:29:44 PM

Latest Report: Dec 23, 2014 at 12:54 PM


Visibility: 7 mi

Pressure: 29.96 "Hg

Humidity: 85%

Dew point: 78 °F

Location of SaipanLocation

Historic Weather in Saipan — Graph

°F

Saipan temperature yesterday

Maximum temperature yesterday: 87 °F (at 12:54 PM)
Minimum temperature yesterday: 79 °F (at 3:54 AM)
Average temperature yesterday: 82 °F

Past Weeks' High & Low Weather Summary

 TemperatureHumidityPressure
High88 °F (Dec 13, 12:54 PM)100% (Dec 14, 7:18 PM)30.07 "Hg (Dec 14, 7:18 PM)
Low75 °F (Dec 14, 7:18 PM)59% (Dec 19, 12:54 PM)29.84 "Hg (Dec 10, 2:06 PM)
Average82 °F79%29.97 "Hg
* Reported Dec 8 11:54 AM — Dec 23 11:54 AM, Saipan, Weather by CustomWeather, © 2014

Note: Actual official high and low records may vary slightly from our data, if they occured in-between our weather recording intervals... More about our weather records

Advertising

Saipan weather history for previous 24 hours

 ConditionsComfort  
Time TempWeatherWind HumidityBarometerVisibility
11:54 AM
Dec 23
87 °FBroken clouds.17 mph72%29.98 "Hg10 mi
11:36 AM84 °FLight rain. More clouds than sun.17 mph84%29.94 "Hg7 mi
11:14 AM86 °FBroken clouds.21 mph70%29.95 "Hg10 mi
10:54 AM85 °FBroken clouds.23 mph75%30.01 "Hg10 mi
9:54 AM86 °FPassing clouds.21 mph72%30.02 "Hg10 mi
8:54 AM84 °FScattered clouds.23 mph80%30.03 "Hg10 mi
7:54 AM82 °FScattered clouds.21 mph85%30.02 "Hg10 mi
6:54 AM81 °FSunny.17 mph85%29.99 "Hg10 mi
5:54 AM81 °FPassing clouds.15 mph82%29.98 "Hg10 mi
4:54 AM81 °FPassing clouds.21 mph82%29.97 "Hg10 mi
3:54 AM80 °FPassing clouds.22 mph81%29.96 "Hg10 mi
2:54 AM81 °FPassing clouds.18 mph79%29.97 "Hg10 mi
1:54 AM80 °FPassing clouds.22 mph81%29.98 "Hg10 mi
12:54 AM80 °FPassing clouds.23 mph79%30.00 "Hg10 mi
11:54 PM
Dec 22
80 °FPassing clouds.17 mph79%30.01 "Hg10 mi
10:54 PM80 °FPassing clouds.17 mph79%30.00 "Hg10 mi
9:54 PM81 °FPassing clouds.22 mph77%30.01 "Hg10 mi
8:54 PM81 °FPassing clouds.15 mph79%30.01 "Hg10 mi
7:54 PM81 °FPassing clouds.17 mph82%29.99 "Hg10 mi
6:54 PM81 °FPassing clouds.21 mph85%29.96 "Hg10 mi
5:54 PM81 °FPassing clouds.13 mph82%29.95 "Hg10 mi
4:54 PM83 °FPassing clouds.13 mph74%29.94 "Hg10 mi
3:54 PM85 °FScattered clouds.15 mph75%29.93 "Hg10 mi
2:54 PM87 °FScattered clouds.16 mph67%29.93 "Hg10 mi
1:54 PM86 °FBroken clouds.18 mph75%29.93 "Hg10 mi
Weather by CustomWeather, © 2014

See weather overviewHow to use our weather pages